Regional Weather Roundup
Issued by NWS Wakefield, VA

Home | Current Version | Previous Version | Graphics & Text | Print | Product List | Glossary On
Versions: 1 2 3 4 5 6 7 8 9 10 11 12 13 14 15 16 17 18 19 20 21 22 23 24 25 26 27 28 29 30 31 32 33 34 35 36 37 38 39 40 41 42 43 44 45 46 47 48 49 50
000
ASUS41 KAKQ 291313
RWRAKQ

REGIONAL WEATHER ROUNDUP
NATIONAL WEATHER SERVICE WAKEFIELD VA
900 AM EDT SAT AUG 29 2015

Note: "fair" indicates few or no clouds below 12,000 feet with no
significant weather and/or obstructions to visibility. * = Denotes
station may not report precipitation (e.g., rain,snow,etc.),
thunder or fog.

VAZ042-051-052>054-056-291400-
NORTHERN VIRGINIA

CITY           SKY/WX    TMP DP  RH WIND       PRES   REMARKS
WASH NATIONAL  MOSUNNY   74  63  68 S9        30.22S
DULLES         MOSUNNY   71  60  68 S8        30.21S
FORT BELVOIR   SUNNY     73  67  81 VRB6      30.22S
QUANTICO       MOSUNNY   72  61  68 SW6       30.23S
FREDERICKSBRG* SUNNY     72  63  75 SW3       30.22S
STAFFORD*      SUNNY     70  62  75 CALM      30.26F
WARRENTON      MOSUNNY   72  64  77 S6        30.21F
CULPEPER*      MOSUNNY   68  62  82 S3        30.22F
MANASSAS*      MOSUNNY   70  64  83 CALM      30.22S
LEESBURG*      MOSUNNY   70  64  83 CALM      30.22F
WINCHESTER     SUNNY     72  61  68 SW6       30.20F
FRONT ROYAL*   FAIR      70  61  73 S3        30.20S
LURAY*         CLOUDY    64  63  94 CALM      30.23S
$$

VAZ048-049-060>072-079>083-291400-
CENTRAL AND SOUTH CENTRAL VIRGINIA

CITY           SKY/WX    TMP DP  RH WIND       PRES   REMARKS
RICHMOND       MOSUNNY   73  61  65 SW3       30.24S
CHESTERFIELD*  CLOUDY    73  55  53 SW6       30.26S
PETERSBURG*    SUNNY     72  67  83 CALM      30.25S
HANOVER        MOSUNNY   71  62  73 CALM      30.26S
TAPPAHANNOCK*  PTSUNNY   69  62  77 CALM      30.25S
QUINTON*       PTSUNNY   69  64  83 CALM      30.24S
CHARLOTTSVILLE MOSUNNY   69  62  78 CALM      30.23S
GORDONSVILLE*  FAIR      70  63  78 S6        30.22S
ORANGE*        SUNNY     72  63  73 S6        30.24S
LOUISA*        SUNNY     72  63  73 SW3       30.22S
BUMPASS*       FAIR      70  62  76 CALM      30.24R
FARMVILLE*     MOSUNNY   68  65  90 S3        30.24R
CREWE*         FAIR     N/A N/A N/A CALM      30.25S
FORT PICKETT*  CLOUDY    68  63  84 CALM      30.25S
CHASE CITY*    PTSUNNY   73  66  77 CALM      30.25S
CLARKSVILLE*   FAIR      70  63  78 CALM      30.24F
SOUTH HILL*    SUNNY     68  63  82 CALM      30.30S
LAWRENCEVILLE* FAIR      70  64  83 CALM      30.25R
EMPORIA*       SUNNY     66  63  88 CALM      30.26R
$$

VAZ088>098-291400-
SOUTHEAST VIRGINIA

CITY           SKY/WX    TMP DP  RH WIND       PRES   REMARKS
NORFOLK        SUNNY     78  60  53 NE8       30.22S
VIRGINIA BEACH MOSUNNY   80  61  52 NE9       30.21S
NORFOLK NAVAL  MOSUNNY   78  62  57 NE7       30.24R
WEST POINT*    MOSUNNY   73  65  78 CALM      30.26S
SALUDA*        FAIR      73  64  74 CALM      30.24R
NEWPORT NEWS   SUNNY     76  66  71 N3        30.23S
LANGLEY AFB    SUNNY     77  64  65 NE6       30.22S
FORT EUSTIS    SUNNY     75  67  75 VRB2      30.22R
WILLIAMSBURG*  SUNNY     72  70  94 CALM      30.25R
HR EXEC AP*      N/A     72  66  83 CALM      30.25S
FRANKLIN*      SUNNY     70  63  79 CALM      30.24S
WAKEFIELD      SUNNY     71  62  73 CALM      30.24R
$$

VAZ020-022-025-037-045-291400-
WEST CENTRAL AND SOUTHWEST VIRGINIA

CITY           SKY/WX    TMP DP  RH WIND       PRES   REMARKS
STAUNTON*      MOSUNNY   69  62  76 CALM      30.26S
WAYNESBORO*    FAIR      70  61  73 CALM      30.26S
HOT SPRINGS VA SUNNY     66  56  71 W8        30.33S
LYNCHBURG      SUNNY     68  61  78 CALM      30.26R
DANVILLE       SUNNY     69  63  81 CALM      30.25S
SOUTH BOSTON*  FAIR      69  62  79 CALM      30.25S
MARTINSVILLE   SUNNY     66  66  99 CALM      30.28S
ROANOKE        CLOUDY    67  62  84 CALM      30.28R
BLACKSBURG     CLOUDY    68  62  79 CALM      30.32S
DUBLIN*        CLOUDY    65  65 100 CALM      30.31S FOG
MARION*        PTSUNNY   66  60  82 CALM      30.33F
HILLSVILLE*    CLOUDY    62  58  88 SW3       30.31R
RICHLANDS*     FAIR      64  31  29 CALM      30.30S
WISE*          MOSUNNY   70  55  60 CALM      30.30S
ABINGDON*      MOSUNNY   68  59  74 E7        30.28S
$$

MDZ021>025-VAZ099-100-291400-
SOUTHERN MARYLAND AND THE DELMARVA PENINSULA

CITY           SKY/WX    TMP DP  RH WIND       PRES   REMARKS
PATUXENT RIVER PTSUNNY   73  65  75 W3        30.23S
BAY BRIDGE APT   N/A     73  61  64 SW5       30.22F
LEONARDTOWN    SUNNY     72  63  73 CALM      30.25S
DOVER          PTSUNNY   72  66  80 S2        30.22R
GEORGETOWN     MOSUNNY   74  60  61 CALM      30.24S
EASTON         NOT AVBL
CAMBRIDGE      SUNNY     72  64  78 CALM      30.23S
SALISBURY      SUNNY     72  61  68 CALM      30.23S
OCEAN CITY     SUNNY     75  60  59 CALM      30.24R
WALLOPS ISLAND SUNNY     75  62  64 NW3       30.25R
ACCOMACK*      SUNNY     72  68  88 CALM      30.24R
$$

NCZ012>017-030>032-291400-
NORTH CENTRAL AND EASTERN NORTH CAROLINA

CITY           SKY/WX    TMP DP  RH WIND       PRES   REMARKS
ROANOKE RAPIDS FAIR      68  63  83 CALM      30.24R
RALEIGH        PTSUNNY   72  64  76 CALM      30.24S
ELIZABETH CITY SUNNY     76  66  71 N6        30.21S
AHOSKIE*       SUNNY     69  62  81 CALM      30.24R
EDENTON*       SUNNY     71  64  80 NE3       30.21S
CURRITUCK*     SUNNY     77  59  53 NE7       30.22R
KILL DEVIL HLS SUNNY     79  66  64 NE6       30.18S
MANTEO         PTSUNNY   77  67  70 NE10      30.19S
CAPE HATTERAS  MOSUNNY   79  72  79 NE14G22   30.15S
TARBORO*       FAIR      69  63  80 CALM      30.24R
GOLDSBORO      SUNNY     69  65  86 NE6       30.20S
WASHINGTON     SUNNY     72  65  81 NE6       30.21R
GREENVILLE     SUNNY     68  64  88 N5        30.22S
NEW BERN       SUNNY     74  66  76 NE10      30.20S
WILMINGTON     SUNNY     74  67  78 N9        30.17F
$$

VAZ048-291400-
ELSEWHERE

CITY           SKY/WX    TMP DP  RH WIND       PRES   REMARKS
HARRISBURG PA  MOSUNNY   67  59  75 SE5       30.21S
BALTIMORE      PTSUNNY   70  62  76 SW3       30.21S
ANNAPOLIS      SUNNY     73  60  63 SW3       30.22R
ANDREWS AFB    SUNNY     74  60  60 SW10      30.22S
PHILADELPHIA   MOSUNNY   75  58  55 CALM      30.23S
HENDERSON NC   PTSUNNY   71  61  71 CALM      30.25S
GREENSBORO     PTSUNNY   71  61  70 CALM      30.25S
ROCKY MOUNT    SUNNY     72  63  73 NE5       30.23S
$$

VAZ100-291400-
MARINE

STATION/POSITION TIME  TEMP    WIND        PRES    WAVE   SWELL
                       AIR SEA DIR/SP/G            HT/PER HT/PER
                 (UTC) (F)     (DEG/KT/KT) (MB)    (FT/S) (FT/S)
15NM E FENWICK I 1250   75 78  260/  2/  4 1023.9R   3/11   3/11
CHESAPEAKE LGHT  1200   76      60/ 13/ 14 1023.4R
CAPE HENRY BUOY  1228      78                N/A     3/11   2/11
CAPE CHARLES BUO 1226      78                N/A     3/11   2/11
OFFSHORE WE BUOY 1211      78                N/A     3/10   3/10
64NM E OF VA BCH 1250   76 78   50/ 10/ 14 1022.1R   4/11   3/11
44100 DUCK FRF   1224      77                N/A     4/11   2/11
44056 DUCK FRF   1211      78                N/A     4/12   2/12
DIAMOND SHLS NC  1250   79 82   40/ 17/ 19 1020.3F   5/11   3/11
CAPE LOOKOUT NC  1300   78      20/ 16/ 18 1020.8R
$$



USA.gov is the U.S. government's official web portal to all federal, state and local government web resources and services.